Regional Weather Roundup
Issued by NWS

Home | Current Version | Previous Version | Text Only | Print | Product List | Glossary Off
Versions: 1 2 3 4 5 6 7 8 9 10 11 12 13 14 15 16 17 18 19 20 21 22 23 24 25 26 27 28 29 30 31 32 33 34 35 36 37 38 39 40 41 42 43 44 45 46 47 48 49 50

000
ASUS43 KMKX 280400
RWRWI

WISCONSIN REGIONAL WEATHER ROUNDUP
NATIONAL WEATHER SERVICE MILWAUKEE/SULLIVAN WI
1100 PM CDT THU APR 27 2017

NOTE: "FAIR" INDICATES FEW OR NO CLOUDS BELOW 12,000 FEET WITH NO
SIGNIFICANT WEATHER AND/OR OBSTRUCTIONS TO VISIBILITY.

WIZ001-002-006>008-014>016-023>028-280500-
NORTHWEST WISCONSIN

CITY           SKY/WX    TMP DP  RH WIND       PRES   REMARKS
SUPERIOR ARPT  CLOUDY    31  23  73 W15       29.69R WCI  20
ASHLAND        CLOUDY    29  25  85 SW10      29.68R WCI  20
HAYWARD        CLOUDY    29  24  82 SW9       29.69R WCI  20
SIREN          CLOUDY    30  28  94 CALM      29.73R FOG
CUMBERLAND     CLOUDY    30  25  80 W9        29.72R WCI  22
RICE LAKE      CLOUDY    31  26  81 W8        29.74R WCI  23
CHETEK         CLOUDY    31  25  79 W6        29.73R WCI  25
LADYSMITH      CLOUDY    31  26  80 SW8       29.72R WCI  24
EAU CLAIRE     CLOUDY    33  23  66 W12       29.76R WCI  24
MENOMONIE      CLOUDY    33  24  70 W12       29.77R WCI  24
NEW RICHMOND   CLOUDY    32  23  70 W9        29.75R WCI  24
OSCEOLA        CLOUDY    33  25  73 W7        29.78R WCI  26
$$

WIZ003>005-009-010-017-018-280500-
NORTH CENTRAL WISCONSIN

CITY           SKY/WX    TMP DP  RH WIND       PRES   REMARKS
MANITOWISH WTR CLOUDY    27  25  94 W12       29.64R WCI  16
ARBOR VITAE    CLOUDY    29  26  86 W10       29.64R WCI  20
WOODRUFF       CLOUDY    29  26  86 W10       29.64R WCI  20
RHINELANDER    MIX PCPN  29  26  89 W15       29.66R WCI  18
EAGLE RIVER    CLOUDY    28  23  84 W8        29.64R WCI  19
LAND O LAKES   CLOUDY    28  26  93 W7        29.65R FOG     WCI  20
PHILLIPS       CLOUDY    27  26  96 W7        29.67R WCI  20
TOMAHAWK       CLOUDY    28  25  86 W5        29.69R WCI  23
MEDFORD        CLOUDY    30  27  88 W10       29.69R WCI  21
MERRILL        CLOUDY    31  29  94 W7        29.69R WCI  24
$$

WIZ029-030-035-036-043>047-280500-
CENTRAL WISCONSIN

CITY           SKY/WX    TMP DP  RH WIND       PRES   REMARKS
WAUSAU         MIX PCPN  32  30  92 W12       29.70R WCI  23
MOSINEE        CLOUDY    32  32 100 W8        29.71R WCI  25
MARSHFIELD     CLOUDY    33  27  78 W14G24    29.71R WCI  23
STEVENS POINT  CLOUDY    32  32  99 W9        29.72R WCI  24
WAUPACA        CLOUDY    39  34  80 W10       29.73R WCI  33
WAUTOMA        NOT AVBL
WISC RAPIDS    CLOUDY    34  32  92 W7        29.75R WCI  28
CAMP DOUGLAS   CLOUDY    36  32  87 W12G20    29.77R WCI  27
$$

WIZ011>013-019>022-031-037>040-048>050-280500-
NORTHEAST WISCONSIN

CITY           SKY/WX    TMP DP  RH WIND       PRES   REMARKS
ANTIGO         CLOUDY    30  29  95 W8G18     29.68R WCI  22
SHAWANO        CLOUDY    37  32  82 W8        29.71R WCI  31
OCONTO         NOT AVBL
STURGEON BAY   CLOUDY    38  33  82 W10       29.71R WCI  31
GREEN BAY      CLOUDY    39  36  89 W10       29.72R WCI  32
MANITOWOC      NOT AVBL
APPLETON       LGT RAIN  37  34  87 W16       29.71R WCI  28
CLINTONVILLE   CLOUDY    36  32  87 W9        29.71R WCI  29
OSHKOSH        CLOUDY    39  33  79 W9        29.73R WCI  33
$$

WIZ032>034-041-042-053>061-280500-
SOUTHWEST WISCONSIN

CITY           SKY/WX    TMP DP  RH WIND       PRES   REMARKS
LA CROSSE      CLOUDY    38  28  67 W15       29.80R WCI  29
SPARTA         CLOUDY    36  30  79 W9G17     29.78R WCI  29
VIROQUA        CLOUDY    35  30  82 W14G23    29.78R WCI  26
BOSCOBEL       CLOUDY    41  29  62 W15G21    29.81R
PRAIRIE DU CHI CLOUDY    40  29  66 W7        29.81S WCI  35
PLATTEVILLE    CLEAR     37  32  82 W10       29.81S WCI  30
$$

WIZ056-057-062-063-064-067-068-280500-
SOUTH CENTRAL WISCONSIN

CITY           SKY/WX    TMP DP  RH WIND       PRES   REMARKS
REEDSBURG      CLOUDY    37  32  80 SW10G18   29.77R WCI  30
BARABOO/DELLS  CLOUDY    37  31  76 W13G21    29.77R WCI  29
LONE ROCK      NOT AVBL
MINERAL POINT  CLOUDY    39  32  75 W10G16    29.80R WCI  32
MADISON        CLOUDY    38  29  70 W10G20    29.79R WCI  31
MIDDLETON      CLOUDY    39  31  71 W12G23    29.80R WCI  32
WATERTOWN      CLOUDY    39  32  76 W14G21    29.78R WCI  31
MONROE         PTCLDY    37  32  81 W15       29.81R WCI  28
JANESVILLE     CLOUDY    41  34  75 W9        29.81R
$$

WIZ051-052-058>065-066-070>072-280500-
SOUTHEAST WISCONSIN

CITY           SKY/WX    TMP DP  RH WIND       PRES   REMARKS
MILWAUKEE      CLOUDY    44  32  62 W15G25    29.79R
WAUKESHA       CLOUDY    37  32  81 W17G24    29.79  WCI  28
MILWAUKEE/TIMM CLOUDY    41  32  70 SW9       29.78R
RACINE         CLOUDY    43  32  65 SW12      29.82R
KENOSHA        CLOUDY    43  34  70 SW15      29.81R
FOND DU LAC    LGT RAIN  40  32  73 W9        29.75R WCI  34
SHEBOYGAN      CLOUDY    41  37  86 SW12      29.75R
WEST BEND      CLOUDY    41  34  75 SW13      29.75R
JUNEAU         CLOUDY    38  32  76 SW16G24   29.77R WCI  30
$$

LSZ147-162-280500-
LAKE SUPERIOR

STATION/POSITION TIME  TEMP    WIND        PRES    WAVE
                       AIR SEA DIR/SP/G            HT/PER
                 (UTC) (F)     (DEG/KT/KT) (MB)    (FT/S)
DEVILS ISLAND    0300   31     260/ 16/ 19 1004.3R
PORT WING        0340   33     270/ 15/ 19 1005.1R
SAXON HARBOR     0330   30     210/  5/ 10 1004.7R
$$

LMZ867-665-643>646-280500-
LAKE MICHIGAN

STATION/POSITION TIME  TEMP    WIND        PRES    WAVE
                       AIR SEA DIR/SP/G            HT/PER
                 (UTC) (F)     (DEG/KT/KT) (MB)    (FT/S)
CHAMBERS ISLAND  0340   38     220/ 12/ 18 1005.1R
N MID LAKE BUOY  0250   38 37  230/ 12/ 14 1005.7R   4/ 5
NORTHPORT PIER   0330   38     260/  3/  8 1005.1S
KEWAUNEE LAKESHO 0330   40     250/  5/  7 1005.7R
SHEBOYGAN LAKESH 0300   43     230/ 13/ 16 1006.8R
PORT WASHINGTON  0340   43     240/  7/ 15 1008.8R
MILWAUKEE LAKESH 0330   43     250/ 15/ 20   N/A
S MID LAKE BUOY  0250   43 41  270/ 14/ 16 1009.2R   3/ 5
KENOSHA   LAKESH 0300   44     250/ 11/ 20 1009.1
$$

TC  - TEMPERATURE IN CELSIUS
VSB - VISIBILITY IN STATUTE MILES
WCI - WIND CHILL INDEX
HX  - HEAT INDEX





USA.gov is the U.S. government's official web portal to all federal, state and local government web resources and services.